Weather History for Rhinelander, WI

Change the Weather History Date:

Sunday, December 30, 2012

  Actual Average Record
Temperature  
Mean Temperature 15 °F 13 °F  
Max Temperature 20 °F 22 °F 48 °F (1936)
Min Temperature 10 °F 4 °F -29 °F (1917)
Degree Days  
Heating Degree Days 50 52  
Month to date heating degree days 1254 1441  
Since 1 July heating degree days 3374 3575  
Cooling Degree Days 0 0  
Month to date cooling degree days 0 0  
Year to date cooling degree days 373 261  
Moisture  
Dew Point 8 °F    
Average Humidity 76    
Maximum Humidity 84    
Minimum Humidity 67    
Precipitation  
Precipitation T in 0.04 in 0.58 in (1972)
Month to date precipitation 0.88 1.40  
Year to date precipitation 30.12 31.36  
Snow  
Snow 0.10 in - 5.00 in (1972)
Month to date snowfall 12.1  
Since 1 July snowfall 17.6  
Snow Depth 5.00 in    
Sea Level Pressure  
Sea Level Pressure 30.09 in    
Wind  
Wind Speed 8 mph (SW)    
Max Wind Speed 16 mph    
Max Gust Speed 22 mph    
Visibility 8 miles    
Events Snow    
T = Trace of Precipitation, MM = Missing Value Source: NWS Daily Summary

Daily Weather History Graph

Daily Weather History Graph

Search for Another Location

Airport:

Trip Planner

Search our weather history database for the weather conditions in past years. The results will help you decide how hot, cold, wet, or windy it might be!

Date:

Astronomy

Dec. 30, 2012 Rise Set
Actual Time 7:38 AM CST 4:23 PM CST
Civil Twilight 7:04 AM CST 4:57 PM CST
Nautical Twilight 6:26 AM CST 5:35 PM CST
Astronomical Twilight 5:50 AM CST 6:11 PM CST
Moon 7:02 PM CST (12/30) 8:40 AM CST (12/30)
Length of Visible Light 9h 53m
Length of Day
8h 44m
Waning Gibbous, 95% of the Moon is Illuminated
Dec 30
Waning Gibbous
Jan 4
Last Quarter
Jan 11
New
Jan 18
First Quarter
Jan 26
Full

Hourly Weather History & Observations

Time (CST) Temp. Windchill Dew Point Humidity Pressure Visibility Wind Dir Wind Speed Gust Speed Precip Events Conditions
12:42 AM 14.0 °F 2.0 °F 8.6 °F 79% 30.02 in 4.0 mi WSW 9.2 mph - 0.00 in Snow Light Snow
12:53 AM 14.0 °F 2.9 °F 9.0 °F 80% 30.12 in 5.0 mi WSW 8.1 mph - 0.00 in Snow Light Snow
1:53 AM 12.9 °F -0.2 °F 8.1 °F 81% 30.14 in 6.0 mi West 10.4 mph - 0.00 in   Haze
2:53 AM 12.9 °F 0.7 °F 8.1 °F 81% 30.15 in 6.0 mi West 9.2 mph - 0.00 in   Haze
3:08 AM 12.2 °F -1.8 °F 8.6 °F 85% 30.06 in 4.0 mi West 11.5 mph - 0.00 in Snow Light Snow
3:34 AM 12.2 °F -1.8 °F 6.8 °F 79% 30.06 in 5.0 mi West 11.5 mph - 0.00 in Snow Light Snow
3:53 AM 12.0 °F 1.5 °F 7.0 °F 80% 30.16 in 5.0 mi West 6.9 mph - 0.00 in Snow Light Snow
4:13 AM 12.2 °F -1.0 °F 6.8 °F 79% 30.06 in 5.0 mi West 10.4 mph - 0.00 in Snow Light Snow
4:53 AM 10.9 °F -1.8 °F 6.1 °F 81% 30.18 in 8.0 mi West 9.2 mph - 0.00 in Snow Light Snow
5:53 AM 10.9 °F 0.2 °F 6.1 °F 81% 30.18 in 8.0 mi West 6.9 mph - 0.00 in   Overcast
7:53 AM 10.9 °F 0.2 °F 6.1 °F 81% 30.18 in 6.0 mi WSW 6.9 mph - N/A   Haze
8:53 AM 10.0 °F -0.9 °F 6.1 °F 84% 30.19 in 4.0 mi SW 6.9 mph - 0.00 in Snow Light Snow
9:53 AM 10.0 °F 1.8 °F 6.1 °F 84% 30.21 in 7.0 mi WSW 4.6 mph - 0.00 in   Mostly Cloudy
10:16 AM 10.4 °F 0.8 °F 6.8 °F 85% 30.11 in 8.0 mi SW 5.8 mph - N/A   Scattered Clouds
10:53 AM 12.9 °F 2.6 °F 6.1 °F 74% 30.21 in 10.0 mi SSW 6.9 mph - N/A   Clear
11:53 AM 15.1 °F 4.2 °F 8.1 °F 74% 30.18 in 10.0 mi SSW 8.1 mph - N/A   Clear
12:53 PM 17.1 °F 5.8 °F 9.0 °F 71% 30.14 in 10.0 mi SSW 9.2 mph - N/A   Clear
1:53 PM 18.0 °F 7.7 °F 10.0 °F 71% 30.11 in 10.0 mi SSW 8.1 mph - N/A   Clear
2:53 PM 18.0 °F 7.7 °F 10.0 °F 71% 30.09 in 10.0 mi South 8.1 mph - N/A   Clear
3:53 PM 18.0 °F 6.1 °F 9.0 °F 68% 30.09 in 10.0 mi South 10.4 mph - N/A   Clear
4:53 PM 16.0 °F 6.3 °F 8.1 °F 71% 30.06 in 10.0 mi SSW 6.9 mph - N/A   Clear
5:53 PM 15.1 °F 6.4 °F 7.0 °F 70% 30.04 in 10.0 mi SSW 5.8 mph - N/A   Clear
6:53 PM 12.0 °F - 7.0 °F 80% 30.02 in 10.0 mi Calm Calm - N/A   Clear
7:53 PM 15.1 °F 5.2 °F 9.0 °F 77% 30.00 in 10.0 mi South 6.9 mph - N/A   Overcast
8:53 PM 18.0 °F 7.7 °F 12.0 °F 78% 29.97 in 10.0 mi SSW 8.1 mph - N/A   Overcast
9:53 PM 19.0 °F 5.6 °F 12.0 °F 74% 29.94 in 10.0 mi SSW 13.8 mph 21.9 mph N/A   Mostly Cloudy
10:53 PM 19.9 °F 6.7 °F 12.9 °F 74% 29.92 in 10.0 mi SW 13.8 mph - N/A   Overcast
11:53 PM 19.0 °F 8.2 °F 12.9 °F 77% 29.90 in 9.0 mi SW 9.2 mph - N/A   Overcast